FENGYUN 1C DEB, 29914

Orbit data source: Space-Track

FENGYUN 1C DEB, 29914 is space debris in SSO originally from a launch on Mon, 10 May 1999 UTC launched from the Taiyaun Space Center, China (TSC). Fengyun 1C debris stems from the Chinese weather satellite Fengyun-1C, which was intentionally destroyed by a Chinese anti-satellite missile in 2007. This event dramatically increased the amount of space debris, with thousands of trackable fragments posing hazards to satellites and human spaceflight. The Fengyun 1C debris cloud has become a focal point in discussions about space sustainability and the need for international regulations to prevent the creation of new debris.

Loading next visibility...
Identifier
29914, 1999-025HL
Orbit
SSO
Country
Flag of CNCN / PRC
Related business
Manufacturer
Unknown
Mission
Spacecraft
Bus & Motor
Unknown
Mass
Unknown
Launch date (UTC)
1999-05-10 (27 years ago)
Launch vehicle
Unknown
Launch site
Taiyaun Space Center, China (TSC)
Object type
Payload
Rocket body
Debris
Shape & HBR
Unknown shape, 0.1 m
Radar Cross Section
Small (<0.1 m²)

Expand to show TLE details & history
Last TLE update: 9 hours ago

TLE from 9 hours ago
0 FENGYUN 1C DEB
1 29914U 99025HL  26120.33093678 -.00000088  00000-0 -29417-4 0  9995
2 29914  98.8259 149.9015 0036879  88.9734 292.1643 14.03194899987301
Epoch: 2026-04-30T07:56Z
TLE epoch observation values (Epoch: 2026-04-30T07:56:32.937Z)
Latitude
20.49527°
Longitude
169.17546°
Altitude
875.252 km
Speed
7.422 km/s
True Right ascension
09h 46m 22s
True Declination
20° 23' 04"
Sunlit
Object was in daylight at epoch
Visualization orbit readout
Latitude
Unknown
Longitude
Unknown
Altitude
Unknown
Speed
Unknown
Apparent Right ascension
Unknown
Apparent Declination
Unknown
Sunlit
N/A
Visualization observer readout
Local Sidereal Time
00:45:56
Azimuth
Unknown
Elevation
Unknown
Doppler factor
Unknown
Orbital elements
Apogee altitude
906.706 km
Perigee altitude
853.172 km
Semi-major axis
7,258.076 km
Eccentricity
0.00369
Inclination
98.8259°
RAAN
149.9015°
Arg. of periapsis
88.9734°
True anomaly
291.77225°
Mean anomaly
292.1643°
Eccentric anomaly
291.96834°
Mean motion
3.51003 °/min
Orbital period
102.56 mins
BSTAR
-0.000029417
Loading maneuver chart data...
Computing Atmospheric mass density...

Documentation

Showing up to 5 results
|